Weather History for King Salmon, AK

Change the Weather History Date:

Friday, May 16, 2014

  Actual Average Record
Temperature  
Mean Temperature 57 °F 44 °F  
Max Temperature 78 °F 54 °F 78 °F (2014)
Min Temperature 36 °F 35 °F 21 °F (1966)
Degree Days  
Heating Degree Days 8 21  
Month to date heating degree days 244 366  
Since 1 July heating degree days 8646 10189  
Cooling Degree Days 0    
Month to date cooling degree days 0  
Year to date cooling degree days 0  
Growing Degree Days 7 (Base 50)    
Moisture  
Dew Point 39 °F    
Average Humidity 0    
Maximum Humidity 0    
Minimum Humidity 0    
Precipitation  
Precipitation 0.00 in 0.04 in 0.14 in (2005)
Month to date precipitation 0.41 0.60  
Year to date precipitation 3.50 4.05  
Snow  
Snow 0.00 in 0.00 in 0.30 in (1988)
Month to date snowfall 0.0 0.6  
Since 1 July snowfall 36.0 46.4  
Snow Depth 0.00 in    
Sea Level Pressure  
Sea Level Pressure 30.22 in    
Wind  
Wind Speed 8 mph (West)    
Max Wind Speed 17 mph    
Max Gust Speed 22 mph    
Visibility 10 miles    
Events      
T = Trace of Precipitation, MM = Missing Value Source: NWS Daily Summary

Daily Weather History Graph

Daily Weather History Graph

Search for Another Location

Airport:

Trip Planner

Search our weather history database for the weather conditions in past years. The results will help you decide how hot, cold, wet, or windy it might be!

Date:

Astronomy

May. 16, 2014 Rise Set
Actual Time 5:55 AM AKDT 10:52 PM AKDT
Civil Twilight 4:56 AM AKDT 11:51 PM AKDT
Nautical Twilight 2:48 AM AKDT 1:50 AM AKDT
Astronomical Twilight Sun does not rise Sun does not rise
Moon 12:08 AM AKDT (5/16) 7:48 AM AKDT (5/16)
Length of Visible Light 18h 55m
Length of Day
16h 56m
Waning Gibbous, 95% of the Moon is Illuminated
May 16
Waning Gibbous
May 21
Last Quarter
May 28
New
Jun 5
First Quarter
Jun 12
Full

Hourly Weather History & Observations

Time (AKDT) Temp. Windchill Dew Point Humidity Pressure Visibility Wind Dir Wind Speed Gust Speed Precip Events Conditions
12:54 AM 44.1 °F 41.5 °F 41.0 °F 89% 30.30 in 10.0 mi SSE 4.6 mph - N/A   Partly Cloudy
1:54 AM 44.1 °F 40.1 °F 41.0 °F 89% 30.30 in 10.0 mi SSE 6.9 mph - N/A   Clear
2:54 AM 41.0 °F 37.1 °F 37.9 °F 89% 30.29 in 10.0 mi SSE 5.8 mph - N/A   Clear
3:54 AM 39.0 °F 35.7 °F 37.9 °F 96% 30.29 in 10.0 mi South 4.6 mph - N/A   Clear
4:54 AM 39.0 °F 36.8 °F 39.0 °F 100% 30.29 in 10.0 mi South 3.5 mph - N/A   Partly Cloudy
5:54 AM 37.0 °F 33.3 °F 37.0 °F 100% 30.29 in 10.0 mi SSE 4.6 mph - N/A   Partly Cloudy
6:54 AM 37.0 °F 34.5 °F 36.0 °F 96% 30.29 in 10.0 mi SE 3.5 mph - N/A   Clear
7:54 AM 39.9 °F 36.7 °F 39.0 °F 97% 30.28 in 10.0 mi SSE 4.6 mph - N/A   Clear
8:54 AM 44.1 °F 42.5 °F 41.0 °F 89% 30.27 in 10.0 mi SSE 3.5 mph - N/A   Clear
9:54 AM 48.9 °F - 43.0 °F 80% 30.27 in 10.0 mi Calm Calm - N/A   Clear
10:54 AM 57.0 °F - 42.1 °F 57% 30.26 in 10.0 mi Variable 3.5 mph - N/A   Clear
11:54 AM 63.0 °F - 42.1 °F 46% 30.25 in 10.0 mi NW 5.8 mph - N/A   Clear
12:54 PM 69.1 °F - 41.0 °F 36% 30.23 in 10.0 mi Calm Calm - N/A   Clear
1:54 PM 73.9 °F - 37.9 °F 27% 30.21 in 10.0 mi NNW 9.2 mph - N/A   Partly Cloudy
2:54 PM 75.0 °F - 35.1 °F 23% 30.19 in 10.0 mi NNW 17.3 mph 20.7 mph N/A   Partly Cloudy
3:54 PM 75.9 °F - 33.1 °F 21% 30.18 in 10.0 mi NW 11.5 mph 19.6 mph N/A   Partly Cloudy
4:54 PM 77.0 °F - 32.0 °F 19% 30.16 in 10.0 mi NW 10.4 mph 17.3 mph N/A   Partly Cloudy
5:54 PM 77.0 °F - 33.1 °F 20% 30.15 in 10.0 mi NNW 12.7 mph 21.9 mph N/A   Partly Cloudy
6:54 PM 77.0 °F - 37.0 °F 24% 30.14 in 10.0 mi NNW 12.7 mph - N/A   Partly Cloudy
7:54 PM 73.9 °F - 39.0 °F 28% 30.14 in 10.0 mi WNW 13.8 mph - N/A   Partly Cloudy
8:54 PM 70.0 °F - 44.1 °F 39% 30.14 in 10.0 mi West 13.8 mph - N/A   Partly Cloudy
9:54 PM 64.9 °F - 45.0 °F 48% 30.14 in 10.0 mi West 9.2 mph - N/A   Partly Cloudy
10:54 PM 59.0 °F - 46.0 °F 62% 30.14 in 10.0 mi West 9.2 mph - N/A   Partly Cloudy
11:54 PM 57.0 °F - 44.1 °F 62% 30.14 in 10.0 mi WNW 8.1 mph - N/A   Partly Cloudy